Location: Peterborough
(44.3091°N, 78.3197°W)
Time: 06:46:01
(UTC-05:00)

Transit 4A - Pass Details

Date: 03 October 2023
Orbit: 864 x 979 km, 66.8° (Epoch: 07 December)

Event Time Altitude Azimuth Distance (km) Brightness Sun altitude
Rises 21:01:33 0° 323° (NW) 3,668 11.9 -24.0°
Reaches altitude 10° 21:04:13 10° 318° (NW) 2,705 11.1 -24.4°
Maximum altitude 21:10:12 46° 247° (WSW) 1,243 8.8 -25.4°
Enters shadow 21:13:56 22° 185° (S) 1,936 9.4 -26.0°
